Regional Weather Roundup
Issued by NWS

Home | Current Version | Previous Version | Graphics & Text | Print | Product List | Glossary On
Versions: 1 2 3 4 5 6 7 8 9 10 11 12 13 14 15 16 17 18 19 20 21 22 23 24 25 26 27 28 29 30 31 32 33 34 35 36 37 38 39 40 41 42 43 44 45 46 47 48 49 50
000
ASUS43 KFSD 221210
RWRSD

WEATHER ROUNDUP FOR SOUTH DAKOTA
NATIONAL WEATHER SERVICE SIOUX FALLS SD
700 AM CDT TUE AUG 22 2017

NOTE: "FAIR" INDICATES FEW OR NO CLOUDS BELOW 12,000 FEET WITH NO
SIGNIFICANT WEATHER AND/OR OBSTRUCTIONS TO VISIBILITY.


SDZ001>005-009-010-012>017-221300-
NORTHWEST AND NORTH CENTRAL SOUTH DAKOTA

CITY           SKY/WX    TMP DP  RH WIND       PRES   REMARKS
BUFFALO          N/A     53  39  59 CALM      30.17R
FAITH            N/A     53  44  71 W3        30.21R
MOBRIDGE       CLEAR     48  45  89 N7        30.16R
$$

SDZ012>016-024>037-041>051-057-063-072>074-221300-
SOUTHWEST AND SOUTH CENTRAL SOUTH DAKOTA

CITY           SKY/WX    TMP DP  RH WIND       PRES   REMARKS
RAPID CTY ARPT CLEAR     51  40  65 CALM      30.23R
PIERRE         CLEAR     52  47  83 SW5       30.19R
CUSTER         CLEAR     44  35  70 W5        30.32R
ELLSWORTH AFB  CLEAR     53  41  63 SW5       30.22R
PHILIP         CLEAR     45  43  93 W8        30.22R
SPEARFISH      FAIR      50  37  62 CALM      30.24S
WINNER         FAIR      52  49  89 SW6       30.21R
$$

SDZ004>011-016>023-039-040-221300-
NORTHEAST SOUTH DAKOTA

CITY           SKY/WX    TMP DP  RH WIND       PRES   REMARKS
ABERDEEN       CLEAR     43  42  97 W3        30.14R
WATERTOWN      CLEAR     52  51  97 W7        30.11R
BROOKINGS      CLEAR     50  49  96 CALM      30.13R
SISSETON         N/A     50  47  89 NW8       30.08R
$$

SDZ017-020-022-023-036>040-048>070-221300-
SOUTHEAST SOUTH DAKOTA

CITY           SKY/WX    TMP DP  RH WIND       PRES   REMARKS
SIOUX FALLS    CLEAR     54  52  93 NW5       30.12R
HURON          CLEAR     47  45  93 W6        30.16R
CHAMBERLAIN    CLEAR     52  50  92 W7        30.19R
MITCHELL       CLEAR     51  48  89 W7        30.16R
YANKTON        CLEAR     53  51  93 NW9       30.15R
$$

ABBREVIATIONS USED IN REMARKS
   TC - TEMPERATURE IN CELSIUS
  WCI - WIND CHILL INDEX
   HX - HEAT INDEX
  VSB - VISIBILITY





USA.gov is the U.S. government's official web portal to all federal, state and local government web resources and services.